User: anonymous   Login
Location: Fort Wayne
(41.1310°N, 85.1290°W)
Time: 00:33:35
(UTC-04:00)
Language:

COSMOS 2428 - Orbit

View from above orbital plane
View from above orbital plane
View from above satellite
View from above satellite

Ground track
Ground track

The orbit data is extracted from the following two-line orbital elements,

1 31792U 07029A   16147.70517546  .00000137  00000-0  10000-3 0  9999
2 31792  70.9399 143.2957 0006602 142.8592 260.1581 14.12381880459509
Epoch (UTC): 26 May 2016 16:55:27
Eccentricity: 0.0006602
inclination: 70.9399°
perigee height: 846 km
apogee height: 856 km
right ascension of ascending node: 143.2957°
argument of perigee: 142.8592°
revolutions per day: 14.12381880
mean anomaly at epoch: 260.1581°
orbit number at epoch: 45950

The dashed part of the orbit path shows where the satellite is in the earth's shadow,  

DLR